JBU418 KJFK-KBOS

Flight info

Callsign JBU418
Flight time N/A
Altitude 21000
Route MERIT ROBUC3
Aircraft A320/M-SDE3FGHIRWY/LB1

Departure

Time 2026-05-08 19:32
Airport John F. Kennedy International Airport (KJFK)

Arrival

Time N/A
Airport Boston Logan International Airport (KBOS)
Time Latitude Longitude Altitude Speed Heading
2026-05-08 19:32 40.62653 -73.87724 3922 ft 182 kts 225°
2026-05-08 19:32 40.61653 -73.88799 4429 ft 192 kts 223°
2026-05-08 19:32 40.60523 -73.89814 4984 ft 201 kts 215°
2026-05-08 19:33 40.59196 -73.90444 5697 ft 207 kts 195°
2026-05-08 19:33 40.57749 -73.90349 6464 ft 214 kts 173°
2026-05-08 19:33 40.56361 -73.89367 6814 ft 247 kts 141°
2026-05-08 19:33 40.55385 -73.87353 7113 ft 280 kts 110°
2026-05-08 19:34 40.55189 -73.84714 7484 ft 302 kts 80°
2026-05-08 19:34 40.55861 -73.82130 8130 ft 306 kts 60°
2026-05-08 19:34 40.56862 -73.79640 8933 ft 309 kts 57°
2026-05-08 19:34 40.57896 -73.77140 9756 ft 313 kts 57°
2026-05-08 19:35 40.58949 -73.74587 10265 ft 327 kts 57°
2026-05-08 19:35 40.60070 -73.71868 10462 ft 350 kts 57°
2026-05-08 19:35 40.61264 -73.68997 10841 ft 364 kts 57°
2026-05-08 19:35 40.62764 -73.66330 11470 ft 361 kts 39°
2026-05-08 19:36 40.64780 -73.64428 12161 ft 355 kts 21°
2026-05-08 19:36 40.66974 -73.62918 12869 ft 357 kts 20°
2026-05-08 19:36 40.69193 -73.61411 13587 ft 360 kts 20°
2026-05-08 19:36 40.71398 -73.59919 14202 ft 363 kts 20°
2026-05-08 19:37 40.73650 -73.58389 14802 ft 366 kts 20°
2026-05-08 19:37 40.75925 -73.56840 15387 ft 370 kts 20°
2026-05-08 19:37 40.78219 -73.55275 15945 ft 373 kts 20°
2026-05-08 19:37 40.80537 -73.53688 16564 ft 377 kts 19°
2026-05-08 19:38 40.82874 -73.52086 16900 ft 380 kts 19°
2026-05-08 19:38 40.85219 -73.50474 16976 ft 380 kts 19°
2026-05-08 19:38 40.87565 -73.48859 16980 ft 380 kts 19°
2026-05-08 19:38 40.89907 -73.47245 16983 ft 380 kts 19°
2026-05-08 19:39 40.92221 -73.45649 16981 ft 380 kts 19°
2026-05-08 19:39 40.94563 -73.44034 16981 ft 380 kts 19°
2026-05-08 19:39 40.96908 -73.42416 16982 ft 380 kts 19°
2026-05-08 19:39 40.99252 -73.40799 16994 ft 380 kts 19°
2026-05-08 19:40 41.01595 -73.39183 16980 ft 380 kts 19°
2026-05-08 19:40 41.03940 -73.37567 16970 ft 380 kts 19°
2026-05-08 19:40 41.06281 -73.35952 16970 ft 379 kts 19°
2026-05-08 19:40 41.08621 -73.34334 16969 ft 380 kts 19°
2026-05-08 19:41 41.10963 -73.32709 16967 ft 380 kts 19°
2026-05-08 19:41 41.13272 -73.31106 16972 ft 380 kts 19°